Location: Unspecified
(0.0000°N, 0.0000°E)
Time: 20:04:37
(UTC+00:00)

CZ-3C DEB - Pass Details

Date: 06 March 2026
Orbit: 1497 x 35067 km, 20.3° (Epoch: 12 June)

Event Time Altitude Azimuth Distance (km) Brightness Sun altitude
Rises 20:16:14 0° 292° (WNW) 7,815 ? -31.1°
Reaches altitude 10° 20:19:26 10° 292° (WNW) 7,603 ? -31.9°
Maximum altitude 21:14:00 85° 215° (SW) 15,771 ? -45.4°
Drops below altitude 10° 06:24:18 10° 86° (E) 6,058 ? 3.3°
Sets 06:26:55 0° 83° (E) 6,454 ? 3.9°
